When you browse on this site, cookies collect data to enhance your experience and personalize the content and advertising you see.
Visit our Privacy Policy to learn more. By continuing to use the site, you agree to this use of cookies and data.
  • In Hungary
  • List of Countries
  • For 7 days
  • Water Temperature
  • Satellite Maps
  • Weather Map
  • News
  • Weather Widgets
  • user-avatar
    Login

    Hourly Weather Nema

    Today, 18 November, Sunday

    Time Temperature Precipitation Wind Pressure Humidity
    00:00 +33°C° 0 mm 4 mps 730 mmHg 13%
    01:00 +33°C° 0 mm 4 mps 730 mmHg 14%
    02:00 +32°C° 0 mm 4 mps 730 mmHg 14%
    03:00 +32°C° 0 mm 4 mps 729 mmHg 15%
    04:00 +30°C° 0 mm 4 mps 729 mmHg 15%
    05:00 +30°C° 0 mm 4 mps 730 mmHg 15%
    06:00 +30°C° 0 mm 4 mps 730 mmHg 16%
    07:00 +30°C° 0 mm 4 mps 730 mmHg 15%
    08:00 +32°C° 0 mm 4 mps 730 mmHg 14%
    09:00 +33°C° 0 mm 5 mps 731 mmHg 14%
    10:00 +35°C° 0 mm 5 mps 731 mmHg 13%
    11:00 +36°C° 0 mm 5 mps 731 mmHg 12%
    12:00 +37°C° 0 mm 5 mps 731 mmHg 11%
    13:00 +39°C° 0 mm 5 mps 730 mmHg 11%
    14:00 +38°C° 0 mm 4 mps 730 mmHg 11%
    15:00 +38°C° 0 mm 4 mps 729 mmHg 11%
    16:00 +37°C° 0 mm 5 mps 729 mmHg 12%
    17:00 +37°C° 0 mm 5 mps 729 mmHg 13%
    18:00 +36°C° 0 mm 6 mps 730 mmHg 15%
    19:00 +35°C° 0 mm 6 mps 730 mmHg 16%
    20:00 +34°C° 0 mm 7 mps 731 mmHg 18%
    21:00 +33°C° 0 mm 8 mps 731 mmHg 19%
    22:00 +32°C° 0 mm 7 mps 731 mmHg 21%
    23:00 +32°C° 0 mm 6 mps 731 mmHg 22%

    Tomorrow, 19 November, Monday

    Time Temperature Precipitation Wind Pressure Humidity
    00:00 +30°C° 0 mm 6 mps 731 mmHg 23%
    01:00 +30°C° 0 mm 5 mps 731 mmHg 25%
    02:00 +29°C° 0 mm 4 mps 731 mmHg 27%
    03:00 +29°C° 0 mm 4 mps 730 mmHg 28%
    04:00 +28°C° 0 mm 3 mps 730 mmHg 30%
    05:00 +28°C° 0 mm 3 mps 730 mmHg 31%
    06:00 +28°C° 0 mm 3 mps 731 mmHg 33%
    07:00 +28°C° 0 mm 3 mps 731 mmHg 33%
    08:00 +29°C° 0 mm 3 mps 732 mmHg 33%
    09:00 +29°C° 0 mm 3 mps 732 mmHg 33%
    10:00 +30°C° 0 mm 3 mps 732 mmHg 30%
    11:00 +33°C° 0 mm 3 mps 732 mmHg 27%
    12:00 +34°C° 0 mm 3 mps 732 mmHg 24%
    13:00 +34°C° 0 mm 3 mps 732 mmHg 23%
    14:00 +35°C° 0 mm 4 mps 731 mmHg 22%
    15:00 +35°C° 0 mm 4 mps 731 mmHg 21%
    16:00 +34°C° 0 mm 4 mps 731 mmHg 22%
    17:00 +34°C° 0 mm 4 mps 731 mmHg 24%
    18:00 +33°C° 0 mm 4 mps 731 mmHg 25%
    19:00 +33°C° 0 mm 3 mps 731 mmHg 27%
    20:00 +31°C° 0 mm 3 mps 732 mmHg 28%
    21:00 +30°C° 0 mm 3 mps 732 mmHg 30%
    22:00 +30°C° 0 mm 2 mps 732 mmHg 32%
    23:00 +29°C° 0 mm 2 mps 732 mmHg 33%

    Day after tomorrow, 20 November, Tuesday

    Time Temperature Precipitation Wind Pressure Humidity
    00:00 +29°C° 0 mm 2 mps 732 mmHg 35%
    01:00 +28°C° 0 mm 2 mps 731 mmHg 36%
    02:00 +28°C° 0 mm 2 mps 731 mmHg 36%
    03:00 +28°C° 0 mm 2 mps 730 mmHg 37%
    04:00 +27°C° 0 mm 2 mps 731 mmHg 38%
    05:00 +27°C° 0 mm 2 mps 731 mmHg 39%
    06:00 +27°C° 0 mm 2 mps 731 mmHg 39%
    07:00 +28°C° 0 mm 2 mps 731 mmHg 38%
    08:00 +28°C° 0 mm 2 mps 732 mmHg 36%
    09:00 +29°C° 0 mm 3 mps 733 mmHg 34%
    10:00 +30°C° 0 mm 3 mps 733 mmHg 32%
    11:00 +31°C° 0 mm 2 mps 733 mmHg 31%
    12:00 +31°C° 0 mm 2 mps 733 mmHg 29%
    13:00 +32°C° 0 mm 2 mps 732 mmHg 28%
    14:00 +32°C° 0 mm 1 mps 731 mmHg 28%
    15:00 +32°C° 0 mm 1 mps 731 mmHg 27%
    16:00 +32°C° 0 mm 1 mps 731 mmHg 27%
    17:00 +32°C° 0 mm 1 mps 731 mmHg 28%
    18:00 +30°C° 0 mm 0 mps 731 mmHg 28%
    19:00 +31°C° 0 mm 1 mps 732 mmHg 29%
    20:00 +31°C° 0 mm 1 mps 732 mmHg 29%
    21:00 +30°C° 0 mm 1 mps 733 mmHg 30%
    22:00 +30°C° 0 mm 1 mps 733 mmHg 30%
    23:00 +29°C° 0 mm 1 mps 733 mmHg 31%

    21 November, Wednesday

    Time Temperature Precipitation Wind Pressure Humidity
    00:00 +29°C° 0 mm 1 mps 732 mmHg 31%
    01:00 +29°C° 0 mm 2 mps 732 mmHg 31%
    02:00 +29°C° 0 mm 2 mps 731 mmHg 31%
    03:00 +28°C° 0 mm 2 mps 731 mmHg 32%
    04:00 +28°C° 0 mm 2 mps 731 mmHg 32%
    05:00 +28°C° 0 mm 3 mps 731 mmHg 32%
    06:00 +28°C° 0 mm 3 mps 731 mmHg 33%
    07:00 +29°C° 0 mm 3 mps 732 mmHg 31%
    08:00 +29°C° 0 mm 4 mps 732 mmHg 28%
    09:00 +30°C° 0 mm 4 mps 733 mmHg 26%
    10:00 +32°C° 0 mm 4 mps 733 mmHg 25%
    11:00 +33°C° 0 mm 4 mps 733 mmHg 23%
    12:00 +34°C° 0 mm 4 mps 733 mmHg 21%
    13:00 +35°C° 0 mm 3 mps 732 mmHg 21%
    14:00 +35°C° 0 mm 3 mps 731 mmHg 20%
    15:00 +36°C° 0 mm 2 mps 731 mmHg 20%
    16:00 +35°C° 0 mm 2 mps 731 mmHg 20%
    17:00 +35°C° 0 mm 2 mps 731 mmHg 21%
    18:00 +34°C° 0 mm 2 mps 731 mmHg 21%
    19:00 +34°C° 0 mm 3 mps 732 mmHg 22%
    20:00 +33°C° 0 mm 4 mps 732 mmHg 23%
    21:00 +32°C° 0 mm 5 mps 733 mmHg 24%
    22:00 +32°C° 0 mm 5 mps 732 mmHg 25%
    23:00 +30°C° 0 mm 5 mps 732 mmHg 26%

    22 November, Thursday

    Time Temperature Precipitation Wind Pressure Humidity
    00:00 +30°C° 0 mm 5 mps 732 mmHg 27%
    01:00 +30°C° 0 mm 5 mps 732 mmHg 27%
    02:00 +29°C° 0 mm 5 mps 731 mmHg 28%
    03:00 +29°C° 0 mm 5 mps 731 mmHg 28%
    04:00 +29°C° 0 mm 5 mps 731 mmHg 28%
    05:00 +29°C° 0 mm 6 mps 731 mmHg 28%
    06:00 +28°C° 0 mm 6 mps 731 mmHg 28%
    07:00 +29°C° 0 mm 6 mps 732 mmHg 27%
    08:00 +30°C° 0 mm 7 mps 732 mmHg 27%
    09:00 +31°C° 0 mm 8 mps 733 mmHg 26%
    10:00 +33°C° 0 mm 7 mps 733 mmHg 24%
    11:00 +34°C° 0 mm 7 mps 732 mmHg 22%
    12:00 +36°C° 0 mm 7 mps 732 mmHg 21%
    13:00 +36°C° 0 mm 6 mps 732 mmHg 21%
    14:00 +36°C° 0 mm 6 mps 731 mmHg 20%
    15:00 +37°C° 0 mm 5 mps 730 mmHg 20%
    16:00 +36°C° 0 mm 5 mps 731 mmHg 21%
    17:00 +35°C° 0 mm 5 mps 731 mmHg 22%
    18:00 +35°C° 0 mm 5 mps 731 mmHg 23%
    19:00 +34°C° 0 mm 5 mps 731 mmHg 23%
    20:00 +33°C° 0 mm 5 mps 732 mmHg 24%
    21:00 +33°C° 0 mm 5 mps 732 mmHg 25%
    22:00 +32°C° 0 mm 5 mps 732 mmHg 26%
    23:00 +32°C° 0 mm 5 mps 732 mmHg 26%

    23 November, Friday

    Time Temperature Precipitation Wind Pressure Humidity
    00:00 +30°C° 0 mm 5 mps 731 mmHg 27%
    01:00 +30°C° 0 mm 5 mps 731 mmHg 28%
    02:00 +29°C° 0 mm 5 mps 731 mmHg 28%
    03:00 +29°C° 0 mm 5 mps 731 mmHg 29%
    04:00 +29°C° 0 mm 5 mps 731 mmHg 29%
    05:00 +29°C° 0 mm 5 mps 731 mmHg 29%
    06:00 +28°C° 0 mm 5 mps 731 mmHg 29%
    07:00 +29°C° 0 mm 6 mps 732 mmHg 28%
    08:00 +30°C° 0 mm 6 mps 732 mmHg 26%
    09:00 +32°C° 0 mm 7 mps 733 mmHg 25%
    10:00 +33°C° 0 mm 7 mps 732 mmHg 23%
    11:00 +35°C° 0 mm 7 mps 732 mmHg 21%
    12:00 +36°C° 0 mm 7 mps 732 mmHg 19%
    13:00 +38°C° 0 mm 7 mps 731 mmHg 18%
    14:00 +38°C° 0 mm 6 mps 731 mmHg 18%
    15:00 +38°C° 0 mm 6 mps 730 mmHg 17%
    16:00 +38°C° 0 mm 6 mps 731 mmHg 18%
    17:00 +36°C° 0 mm 6 mps 731 mmHg 19%
    18:00 +35°C° 0 mm 6 mps 731 mmHg 20%
    19:00 +34°C° 0 mm 6 mps 731 mmHg 21%
    20:00 +34°C° 0 mm 7 mps 732 mmHg 22%
    21:00 +33°C° 0 mm 7 mps 732 mmHg 23%
    22:00 +33°C° 0 mm 7 mps 732 mmHg 23%
    23:00 +32°C° 0 mm 7 mps 732 mmHg 24%
    Show more